TimeEST,TemperatureF,Dew PointF,Humidity,Sea Level PressureIn,VisibilityMPH,Wind Direction,Wind SpeedMPH,Gust SpeedMPH,PrecipitationIn,Events,Conditions,WindDirDegrees,DateUTC
12:15 AM,15.6,3.9,60,30.03,10.0,West,5.8,-,N/A,,Unknown,280,2013-02-02 05:15:00
12:35 AM,15.4,3.7,60,30.03,10.0,WNW,6.9,-,N/A,,Unknown,290,2013-02-02 05:35:00
12:55 AM,14.9,3.9,62,30.04,10.0,WNW,6.9,-,N/A,,Unknown,300,2013-02-02 05:55:00
1:15 AM,14.9,4.3,63,30.05,10.0,WNW,5.8,-,N/A,,Unknown,290,2013-02-02 06:15:00
1:35 AM,14.9,4.1,62,30.06,10.0,West,8.1,-,N/A,,Unknown,280,2013-02-02 06:35:00
1:55 AM,14.9,4.6,64,30.07,10.0,West,8.1,-,N/A,,Unknown,270,2013-02-02 06:55:00
2:15 AM,13.8,3.9,65,30.08,10.0,West,8.1,-,N/A,,Unknown,280,2013-02-02 07:15:00
2:55 AM,13.1,3.0,64,30.09,10.0,WNW,9.2,18.4,N/A,,Unknown,300,2013-02-02 07:55:00
3:15 AM,12.9,3.0,65,30.09,10.0,WNW,5.8,16.1,N/A,,Unknown,290,2013-02-02 08:15:00
3:35 AM,12.7,2.1,63,30.09,10.0,WNW,10.4,16.1,N/A,,Unknown,290,2013-02-02 08:35:00
3:55 AM,12.2,2.3,65,30.10,10.0,West,8.1,-,N/A,,Unknown,280,2013-02-02 08:55:00
4:15 AM,12.0,2.1,65,30.11,10.0,West,6.9,-,N/A,,Unknown,280,2013-02-02 09:15:00
4:35 AM,11.7,1.8,65,30.13,10.0,West,8.1,-,N/A,,Unknown,270,2013-02-02 09:35:00
4:55 AM,11.3,1.8,66,30.12,10.0,West,6.9,-,N/A,,Unknown,270,2013-02-02 09:55:00
5:15 AM,11.1,1.4,65,30.13,10.0,West,9.2,-,N/A,,Unknown,280,2013-02-02 10:15:00
5:35 AM,11.1,1.6,66,30.13,10.0,West,9.2,-,N/A,,Unknown,270,2013-02-02 10:35:00
5:55 AM,10.9,1.8,67,30.14,10.0,West,6.9,-,N/A,,Unknown,270,2013-02-02 10:55:00
6:15 AM,10.9,1.4,65,30.14,10.0,West,8.1,-,N/A,,Unknown,280,2013-02-02 11:15:00
6:35 AM,10.4,1.8,68,30.14,10.0,West,8.1,-,N/A,,Unknown,280,2013-02-02 11:35:00
7:15 AM,10.2,1.4,68,30.15,10.0,West,4.6,-,N/A,,Unknown,270,2013-02-02 12:15:00
7:35 AM,10.2,1.6,68,30.15,10.0,West,3.5,-,N/A,,Unknown,280,2013-02-02 12:35:00
7:55 AM,11.1,2.1,67,30.15,10.0,WNW,4.6,-,N/A,,Unknown,290,2013-02-02 12:55:00
8:15 AM,11.8,1.9,65,30.16,10.0,Calm,Calm,-,N/A,,Unknown,0,2013-02-02 13:15:00
8:35 AM,12.7,1.8,62,30.16,10.0,Calm,Calm,-,N/A,,Unknown,0,2013-02-02 13:35:00
8:55 AM,13.1,2.3,62,30.16,10.0,WNW,4.6,-,N/A,,Unknown,290,2013-02-02 13:55:00
9:15 AM,13.6,2.7,62,30.16,10.0,NW,5.8,-,N/A,,Unknown,310,2013-02-02 14:15:00
9:35 AM,14.9,3.9,62,30.16,10.0,NW,6.9,-,N/A,,Unknown,310,2013-02-02 14:35:00
10:15 AM,16.2,4.3,60,30.15,10.0,NNW,4.6,-,N/A,,Unknown,330,2013-02-02 15:15:00
10:35 AM,17.6,3.6,54,30.15,10.0,NW,3.5,-,N/A,,Unknown,320,2013-02-02 15:35:00
10:55 AM,18.5,3.7,53,30.14,10.0,Calm,Calm,-,N/A,,Unknown,0,2013-02-02 15:55:00
11:15 AM,19.4,3.7,51,30.13,10.0,West,4.6,-,N/A,,Unknown,270,2013-02-02 16:15:00
11:35 AM,19.4,3.0,49,30.11,10.0,Calm,Calm,-,N/A,,Unknown,0,2013-02-02 16:35:00
11:55 AM,19.9,3.4,49,30.10,10.0,WNW,4.6,-,N/A,,Unknown,300,2013-02-02 16:55:00
12:15 PM,20.7,4.3,49,30.09,10.0,West,4.6,-,N/A,,Unknown,260,2013-02-02 17:15:00
12:35 PM,21.0,3.7,47,30.08,10.0,Calm,Calm,-,N/A,,Unknown,0,2013-02-02 17:35:00
12:55 PM,21.6,3.7,46,30.08,10.0,West,3.5,-,N/A,,Unknown,280,2013-02-02 17:55:00
1:15 PM,21.9,3.9,46,30.07,10.0,Calm,Calm,-,N/A,,Unknown,0,2013-02-02 18:15:00
1:35 PM,22.1,3.4,45,30.06,10.0,Calm,Calm,-,N/A,,Unknown,0,2013-02-02 18:35:00
1:55 PM,22.8,4.1,45,30.05,10.0,Calm,Calm,-,N/A,,Unknown,0,2013-02-02 18:55:00
2:15 PM,22.8,3.6,44,30.05,10.0,SW,4.6,-,N/A,,Unknown,230,2013-02-02 19:15:00
2:35 PM,22.8,3.6,44,30.05,10.0,SSW,4.6,-,N/A,,Unknown,210,2013-02-02 19:35:00
2:55 PM,22.8,4.3,45,30.04,10.0,Calm,Calm,-,N/A,,Unknown,0,2013-02-02 19:55:00
3:15 PM,23.0,5.2,47,30.04,10.0,South,6.9,-,N/A,,Unknown,190,2013-02-02 20:15:00
3:35 PM,23.0,6.1,48,30.04,10.0,Calm,Calm,-,N/A,,Unknown,0,2013-02-02 20:35:00
4:15 PM,22.6,7.7,53,30.03,10.0,Calm,Calm,-,N/A,,Unknown,0,2013-02-02 21:15:00
4:35 PM,22.5,9.5,58,30.03,10.0,SW,4.6,-,N/A,,Unknown,220,2013-02-02 21:35:00
5:15 PM,21.6,11.5,65,30.02,10.0,Calm,Calm,-,N/A,,Unknown,0,2013-02-02 22:15:00
5:35 PM,21.2,12.6,69,30.02,10.0,Calm,Calm,-,N/A,,Unknown,0,2013-02-02 22:35:00
5:55 PM,21.0,13.1,71,30.03,7.0,Calm,Calm,-,N/A,Snow,Light Snow,0,2013-02-02 22:55:00
6:15 PM,20.8,14.5,77,30.03,7.0,Calm,Calm,-,N/A,,Unknown,0,2013-02-02 23:15:00
6:55 PM,20.1,15.3,81,30.02,4.0,Calm,Calm,-,N/A,Snow,Light Snow,0,2013-02-02 23:55:00
7:15 PM,19.8,15.8,85,30.02,7.0,Calm,Calm,-,N/A,Snow,Light Snow,0,2013-02-03 00:15:00
7:35 PM,19.4,16.3,88,30.02,5.0,Calm,Calm,-,N/A,Snow,Light Snow,0,2013-02-03 00:35:00
7:55 PM,19.2,16.5,89,30.02,7.0,Calm,Calm,-,N/A,Snow,Light Snow,0,2013-02-03 00:55:00
8:35 PM,19.0,16.5,90,30.02,10.0,Calm,Calm,-,N/A,,Unknown,0,2013-02-03 01:35:00
8:55 PM,19.0,16.5,90,30.02,10.0,Calm,Calm,-,N/A,,Unknown,0,2013-02-03 01:55:00
9:15 PM,18.9,16.3,90,30.02,10.0,Calm,Calm,-,N/A,,Unknown,0,2013-02-03 02:15:00
9:35 PM,18.9,16.5,91,30.02,10.0,Calm,Calm,-,N/A,,Unknown,0,2013-02-03 02:35:00
9:55 PM,18.7,16.2,90,30.02,10.0,Calm,Calm,-,N/A,,Unknown,0,2013-02-03 02:55:00
10:15 PM,18.5,16.5,92,30.01,10.0,Calm,Calm,-,N/A,,Unknown,0,2013-02-03 03:15:00
10:35 PM,18.9,16.7,91,30.01,5.0,Calm,Calm,-,N/A,Snow,Light Snow,0,2013-02-03 03:35:00
10:55 PM,18.9,16.5,91,30.01,5.0,Calm,Calm,-,N/A,Snow,Light Snow,0,2013-02-03 03:55:00
11:15 PM,18.1,16.3,93,30.01,7.0,Calm,Calm,-,N/A,,Unknown,0,2013-02-03 04:15:00
11:35 PM,17.4,15.8,93,30.01,10.0,Calm,Calm,-,N/A,,Unknown,0,2013-02-03 04:35:00
11:55 PM,17.2,15.8,94,30.01,7.0,Calm,Calm,-,N/A,,Unknown,0,2013-02-03 04:55:00